Weather History for KMHE - March, 2013

Change the Weather History Date:

Tuesday, March 12, 2013

  Actual Average Record
Temperature  
Mean Temperature 25 °F 32 °F  
Max Temperature 32 °F 43 °F 78 °F (2015)
Min Temperature 17 °F 22 °F -23 °F (1956)
Degree Days  
Heating Degree Days 40 33  
Month to date heating degree days 472 415  
Since 1 July heating degree days 5937 5937  
Cooling Degree Days 0 0  
Month to date cooling degree days 0 0  
Year to date cooling degree days 0 0  
Moisture  
Dew Point 19 °F    
Average Humidity 73    
Maximum Humidity 77    
Minimum Humidity 69    
Precipitation  
Precipitation T in 0.03 in 0.60 in (1976)
Month to date precipitation 0.67 0.31  
Year to date precipitation 2.24 0.87  
Snow  
Snow T in - 5.00 in (1954)
Month to date snowfall 1.7  
Since 1 July snowfall 29.6  
Snow Depth 1.00 in    
Sea Level Pressure  
Sea Level Pressure 30.23 in    
Wind  
Wind Speed 21 mph (NW)    
Max Wind Speed 33 mph    
Max Gust Speed 41 mph    
Visibility 9 miles    
Events Snow    
T = Trace of Precipitation, MM = Missing Value Source: NWS Daily Summary

Daily Weather History Graph

Daily Weather History Graph

Search for Another Location

Airport or City:

Trip Planner

Search our weather history database for the weather conditions in past years. The results will help you decide how hot, cold, wet, or windy it might be!

Date:

Astronomy

Mar. 12, 2013 Rise Set
Actual Time 7:49 AM CDT 7:35 PM CDT
Civil Twilight 7:20 AM CDT 8:03 PM CDT
Nautical Twilight 6:47 AM CDT 8:37 PM CDT
Astronomical Twilight 6:13 AM CDT 9:10 PM CDT
Moon 7:53 AM CDT (3/12) 8:55 PM CDT (3/12)
Length of Visible Light 12h 43m
Length of Day
11h 45m
New Moon, 1% of the Moon is Illuminated
Mar 12
New Moon
Mar 19
First Quarter
Mar 27
Full
Apr 2
Last Quarter
Apr 10
New

Hourly Weather History & Observations

Time (CDT) Temp. Windchill Dew Point Humidity Pressure Visibility Wind Dir Wind Speed Gust Speed Precip Events Conditions
12:53 AM 30.0 °F 21.7 °F 21.9 °F 72% 30.03 in 10.0 mi West 9.2 mph - N/A   Clear
1:53 AM 30.0 °F 20.5 °F 21.9 °F 72% 30.03 in 10.0 mi West 11.5 mph - N/A   Overcast
2:53 AM 30.9 °F 20.7 °F 21.9 °F 69% 30.04 in 10.0 mi West 13.8 mph - N/A   Overcast
3:53 AM 30.0 °F 16.0 °F 21.9 °F 72% 30.06 in 10.0 mi NW 25.3 mph - N/A   Overcast
4:53 AM 28.9 °F 13.7 °F 21.0 °F 72% 30.07 in 10.0 mi NW 28.8 mph 39.1 mph N/A   Overcast
5:53 AM 28.0 °F 11.8 °F 21.0 °F 75% 30.10 in 7.0 mi NW 32.2 mph 38.0 mph 0.00 in Snow Light Snow
6:53 AM 28.0 °F 13.3 °F 19.9 °F 72% 30.12 in 10.0 mi NW 25.3 mph 33.4 mph 0.00 in   Overcast
7:40 AM 26.6 °F 11.1 °F 19.4 °F 74% 30.09 in 9.0 mi NW 26.5 mph 34.5 mph 0.00 in   Overcast
7:53 AM 27.0 °F 11.0 °F 19.9 °F 75% 30.14 in 10.0 mi NW 28.8 mph 38.0 mph 0.00 in   Overcast
8:23 AM 26.6 °F 11.1 °F 19.4 °F 74% 30.11 in 10.0 mi WNW 26.5 mph 33.4 mph N/A   Overcast
8:53 AM 27.0 °F 10.8 °F 19.0 °F 72% 30.18 in 10.0 mi NW 29.9 mph 40.3 mph N/A   Overcast
9:53 AM 27.0 °F 10.8 °F 19.0 °F 72% 30.20 in 10.0 mi NW 29.9 mph 39.1 mph 0.00 in   Overcast
10:40 AM 26.6 °F 11.1 °F 19.4 °F 74% 30.17 in 10.0 mi NW 26.5 mph 34.5 mph 0.00 in   Overcast
10:53 AM 27.0 °F 11.9 °F 19.0 °F 72% 30.23 in 10.0 mi NNW 25.3 mph 33.4 mph 0.00 in   Overcast
11:53 AM 27.0 °F 11.0 °F 19.0 °F 72% 30.26 in 10.0 mi NNW 28.8 mph 38.0 mph 0.00 in   Overcast
12:53 PM 27.0 °F 11.3 °F 19.0 °F 72% 30.28 in 10.0 mi NNW 27.6 mph - 0.00 in   Overcast
1:30 PM 26.6 °F 10.6 °F 19.4 °F 74% 30.24 in 2.5 mi NW 28.8 mph 34.5 mph 0.00 in Snow Light Snow
1:38 PM 28.4 °F 13.8 °F 19.4 °F 69% 30.24 in 9.0 mi NW 25.3 mph 34.5 mph 0.00 in Snow Light Snow
1:53 PM 27.0 °F 11.6 °F 19.0 °F 72% 30.29 in 8.0 mi NNW 26.5 mph 34.5 mph 0.00 in Snow Light Snow
2:45 PM 26.6 °F 11.4 °F 21.2 °F 80% 30.24 in 1.8 mi NW 25.3 mph 32.2 mph 0.00 in Snow Light Snow
2:51 PM 28.4 °F 13.8 °F 19.4 °F 69% 30.24 in 3.0 mi NW 25.3 mph 32.2 mph 0.00 in Snow Light Snow
2:52 PM 28.0 °F 13.3 °F 19.9 °F 72% 30.29 in 4.0 mi NW 25.3 mph 32.2 mph 0.00 in Snow Light Snow
3:10 PM 26.6 °F 12.0 °F 19.4 °F 74% 30.24 in 5.0 mi NW 23.0 mph 31.1 mph 0.00 in Snow Light Snow
3:37 PM 28.4 °F 13.3 °F 19.4 °F 69% 30.25 in 10.0 mi NW 27.6 mph 32.2 mph 0.00 in   Mostly Cloudy
3:53 PM 28.0 °F 12.8 °F 19.9 °F 72% 30.30 in 10.0 mi NNW 27.6 mph - 0.00 in   Mostly Cloudy
4:53 PM 28.0 °F 14.6 °F 19.9 °F 72% 30.32 in 10.0 mi NNW 20.7 mph - 0.00 in   Overcast
5:53 PM 27.0 °F 13.9 °F 19.9 °F 75% 30.33 in 9.0 mi NW 18.4 mph - 0.00 in Snow Light Snow
6:53 PM 26.1 °F 13.6 °F 19.0 °F 75% 30.34 in 10.0 mi NNW 16.1 mph - N/A   Scattered Clouds
7:12 PM 26.6 °F 15.7 °F 19.4 °F 74% 30.29 in 10.0 mi North 12.7 mph - N/A   Mostly Cloudy
7:19 PM 24.8 °F 14.0 °F 17.6 °F 74% 30.29 in 10.0 mi North 11.5 mph - N/A   Scattered Clouds
7:53 PM 24.1 °F 12.5 °F 17.1 °F 75% 30.36 in 10.0 mi North 12.7 mph - N/A   Clear
8:53 PM 21.9 °F 11.7 °F 16.0 °F 78% 30.38 in 10.0 mi NNW 9.2 mph - N/A   Clear
9:53 PM 21.0 °F 11.4 °F 14.0 °F 74% 30.39 in 10.0 mi NNW 8.1 mph - N/A   Clear
10:53 PM 19.9 °F 10.1 °F 14.0 °F 78% 30.40 in 10.0 mi NW 8.1 mph - N/A   Clear
11:53 PM 19.0 °F 9.0 °F 12.9 °F 77% 30.40 in 10.0 mi NNW 8.1 mph - N/A   Clear